Regional Weather Roundup
Issued by NWS

Home | Current Version | Previous Version | Text Only | Print | Product List | Glossary Off
Versions: 1 2 3 4 5 6 7 8 9 10 11 12 13 14 15 16 17 18 19 20 21 22 23 24 25 26 27 28 29 30 31 32 33 34 35 36 37 38 39 40 41 42 43 44 45 46 47 48 49 50

000
ASUS44 KMEG 292200
RWRTN
TENNESSEE HOURLY STATE WEATHER ROUNDUP
NATIONAL WEATHER SERVICE MEMPHIS TN
500 PM CDT MON JUN 29 2015

TNZ002-004-019-021-049-052-054-088>092-292300-
WEST TENNESSEE

CITY           SKY/WX    TMP DP  RH WIND       PRES   REMARKS
MEMPHIS INTL   PTSUNNY   90  69  50 SW14G20   29.89S HX  94
NWS MEMPHIS      N/A     88 N/A N/A MISG        N/A
JACKSON        PTSUNNY   86  70  58 SW10      29.88S HX  90
DYERSBURG        N/A    N/A N/A N/A MISG        N/A
PARIS          MOSUNNY   82  70  65 SW13      29.85F
LEXINGTON      SUNNY     86  70  58 W13       29.86F HX  90
$$

TNZ008-025-027-028-033-062-065-066-292300-
NORTH MIDDLE TENNESSEE

CITY           SKY/WX    TMP DP  RH WIND       PRES   REMARKS
NASHVILLE      PTSUNNY   85  69  58 SW13G20   29.86F
CLARKSVILLE    TSTM      78  72  81 W7        29.86R
COOKEVILLE     MOSUNNY   84  72  65 SW10      29.89S
CROSSVILLE     PTSUNNY   78  64  61 SW7G20    29.95F
$$

TNZ061-075-076-078-094-096-097-292300-
SOUTH MIDDLE TENNESSEE

CITY           SKY/WX    TMP DP  RH WIND       PRES   REMARKS
FAYETTEVILLE   MOSUNNY   84  64  51 SW7       29.92S
TULLAHOMA      MOSUNNY   82  64  54 SW10      29.92F
WINCHESTER     PTSUNNY   82  66  57 SW8       29.92F
SHELBYVILLE    PTSUNNY   84  72  65 SW12      29.90F
$$

TNZ017-018-042-046-047-292300-
NORTHEAST TENNESSEE

CITY           SKY/WX    TMP DP  RH WIND       PRES   REMARKS
TRI CITIES     PTSUNNY   81  60  48 S12       29.93F
ELIZABETHTON   MOCLDY    79  59  50 SW5       29.94F
$$

TNZ012-013-036-069-073-074-292300-
CENTRAL EAST TENNESSEE

CITY           SKY/WX    TMP DP  RH WIND       PRES   REMARKS
KNOXVILLE      PTSUNNY   82  63  52 SW17      29.90F
OAK RIDGE      MOSUNNY   85  64  49 VRB6      29.91S
GATLINBURG     PTCLDY    84  61  45 W18       29.90S
$$

TNZ083-085-099-292300-
SOUTHEAST TENNESSEE

CITY           SKY/WX    TMP DP  RH WIND       PRES   REMARKS
CHATTANOOGA    PTSUNNY   85  63  47 SW10      29.92F
$$

SKY/WX REPORTED AS FAIR MEANS FEW OR NO CLOUDS BELOW
12 THOUSAND FEET.



USA.gov is the U.S. government's official web portal to all federal, state and local government web resources and services.